CW1663 Weather Reports


Display with metric or nautical units.
time (UTC)temp
F
wind
direction
speed
MPH
gust
MPH
rain 1hr
in
rain 24hr
in
rain mn
in
humidity
%
barometer
mb
20260502164305 58 221 2.0 3.0 0.02 0.02 0.02 86 1012.0
20260502151805 65 143 2.0 7.0 0.00 0.00 0.00 65 1013.1
20260502151304 65 186 1.0 7.0 0.00 0.00 0.00 64 1013.3
20260502123305 68 157 5.0 10.0 0.00 0.00 0.00 61 1015.5
20260502122805 67 243 5.0 9.0 0.00 0.00 0.00 60 1015.5
20260502122306 67 256 5.0 8.0 0.00 0.00 0.00 61 1015.6
20260502121804 67 210 3.0 9.0 0.00 0.00 0.00 62 1015.6
20260502121304 67 147 5.0 9.0 0.00 0.00 0.00 62 1015.6
20260502120305 67 213 4.0 12.0 0.00 0.00 0.00 61 1015.8
20260502115804 67 201 2.0 10.0 0.00 0.00 0.00 62 1015.8
20260502115306 67 184 4.0 10.0 0.00 0.00 0.00 62 1015.9
20260502114805 67 187 3.0 7.0 0.00 0.00 0.00 63 1015.9
20260502113804 66 111 2.0 6.0 0.00 0.00 0.00 64 1016.0
20260502112306 65 107 5.0 8.0 0.00 0.00 0.00 64 1016.3
20260502111305 64 195 1.0 9.0 0.00 0.00 0.00 65 1016.4
20260502105805 63 227 2.0 8.0 0.00 0.00 0.00 66 1016.6
20260502105306 63 99 3.0 6.0 0.00 0.00 0.00 65 1016.8
20260502104805 62 199 2.0 5.0 0.00 0.00 0.00 66 1016.8
20260502104305 62 198 3.0 6.0 0.00 0.00 0.00 68 1016.9
20260502103304 62 151 3.0 6.0 0.00 0.00 0.00 71 1017.0
20260502101804 61 267 2.0 3.0 0.00 0.00 0.00 75 1017.1
20260502101305 61 227 4.0 8.0 0.00 0.00 0.00 75 1017.0
20260502100804 61 161 4.0 8.0 0.00 0.00 0.00 78 1017.0
20260502090805 53 204 3.0 6.0 0.00 0.00 0.00 97 1017.5
20260502070804 49 186 1.0 3.0 0.00 0.00 0.00 97 1017.9
20260502070304 49 190 1.0 3.0 0.00 0.00 0.00 97 1018.0
20260502064805 49 216 1.0 3.0 0.00 0.00 0.00 97 1018.0
20260502064305 49 215 2.0 5.0 0.00 0.00 0.00 97 1017.9
20260502063804 49 238 0.0 2.0 0.00 0.00 0.00 97 1017.9
20260502063304 49 238 1.0 3.0 0.00 0.00 0.00 97 1017.9
20260502062804 49 238 1.0 3.0 0.00 0.00 0.00 97 1017.9
20260502062306 49 238 0.0 2.0 0.00 0.00 0.00 97 1017.8
20260502061305 48 239 2.0 3.0 0.00 0.00 0.00 97 1017.8
20260502060804 48 238 2.0 3.0 0.00 0.00 0.00 97 1017.8
20260502060304 48 238 2.0 3.0 0.00 0.00 0.00 97 1017.8
20260502055306 48 238 3.0 7.0 0.00 0.00 0.00 97 1017.8
20260502054805 48 222 2.0 3.0 0.00 0.00 0.00 97 1017.8
20260502054305 48 215 1.0 3.0 0.00 0.00 0.00 97 1017.9
20260502052804 48 216 0.0 2.0 0.00 0.00 0.00 97 1017.8
20260502051305 48 216 1.0 3.0 0.00 0.00 0.00 97 1017.9
20260502050304 48 229 1.0 3.0 0.00 0.00 0.00 97 1017.9
20260502045805 48 244 1.0 5.0 0.00 0.00 0.00 97 1017.9
20260502044804 48 241 2.0 5.0 0.00 0.00 0.00 97 1017.8
20260502042805 48 213 2.0 7.0 0.00 0.00 0.00 97 1017.8
20260502035306 49 223 3.0 7.0 0.00 0.00 0.00 97 1018.2
20260502034804 49 237 3.0 6.0 0.00 0.00 0.00 96 1018.2
20260502032805 49 220 3.0 7.0 0.00 0.00 0.00 96 1018.1
20260502032306 49 196 2.0 3.0 0.00 0.00 0.00 96 1018.2
20260502031805 49 219 4.0 7.0 0.00 0.00 0.00 96 1018.2
20260502031304 49 226 3.0 5.0 0.00 0.00 0.00 96 1018.2
20260502030804 49 228 3.0 6.0 0.00 0.00 0.00 96 1018.2
20260502030304 49 208 4.0 8.0 0.00 0.00 0.00 96 1018.2
20260502023805 49 231 3.0 6.0 0.00 0.00 0.00 96 1018.4
20260502022306 49 236 5.0 7.0 0.00 0.00 0.00 95 1018.4
20260502021805 49 233 4.0 10.0 0.00 0.00 0.00 95 1018.4
20260502021305 49 246 4.0 10.0 0.00 0.00 0.00 95 1018.5
20260502020805 49 252 5.0 10.0 0.00 0.00 0.00 95 1018.5
20260502020305 49 242 5.0 9.0 0.00 0.00 0.00 95 1018.5
20260502015804 49 230 4.0 9.0 0.00 0.00 0.00 95 1018.5
20260502014804 49 234 4.0 9.0 0.00 0.00 0.00 95 1018.6
20260502013804 49 232 5.0 10.0 0.00 0.00 0.00 94 1018.7
20260502012306 50 225 4.0 7.0 0.00 0.00 0.00 94 1018.9
20260502011304 50 216 3.0 5.0 0.00 0.00 0.00 93 1018.9
20260502010804 50 236 4.0 8.0 0.00 0.00 0.00 93 1018.9
20260502005805 50 232 3.0 7.0 0.00 0.00 0.00 93 1019.0
20260502005306 50 240 4.0 7.0 0.00 0.00 0.00 93 1019.1
20260502003305 50 229 2.0 5.0 0.00 0.00 0.00 92 1019.3
20260502002804 51 226 2.0 3.0 0.00 0.00 0.00 92 1019.3
20260502002306 51 227 1.0 3.0 0.00 0.00 0.00 92 1019.5
20260502000305 51 229 0.0 2.0 0.00 0.00 0.00 91 1019.6
20260501235805 51 232 0.0 3.0 0.00 0.00 0.00 91 1019.6
20260501235306 51 234 1.0 3.0 0.00 0.00 0.00 91 1019.7
20260501233804 51 233 2.0 6.0 0.00 0.00 0.00 91 1019.6
20260501231805 52 210 2.0 6.0 0.00 0.00 0.00 90 1019.9
20260501231305 52 198 3.0 6.0 0.00 0.00 0.00 90 1019.8
20260501230815 53 209 2.0 3.0 0.00 0.00 0.00 90 1019.8
20260501225805 53 227 3.0 7.0 0.00 0.00 0.00 89 1019.9
20260501224805 53 194 2.0 7.0 0.00 0.00 0.00 89 1019.8
20260501222804 54 212 3.0 5.0 0.00 0.00 0.00 89 1019.9
20260501221805 54 199 2.0 7.0 0.00 0.00 0.00 89 1019.9
20260501220304 54 225 2.0 7.0 0.00 0.00 0.00 88 1020.0
20260501215305 55 213 3.0 7.0 0.00 0.00 0.00 88 1020.0
20260501214304 55 192 3.0 8.0 0.00 0.00 0.00 88 1020.0
20260501211805 56 194 2.0 5.0 0.00 0.00 0.00 87 1019.9
20260501211304 56 198 2.0 3.0 0.00 0.00 0.00 87 1019.9
20260501210804 56 232 3.0 6.0 0.00 0.00 0.00 87 1019.9
20260501210305 57 196 2.0 6.0 0.00 0.00 0.00 87 1020.0
20260501205306 57 182 1.0 3.0 0.00 0.00 0.00 87 1019.7
20260501204805 57 199 1.0 3.0 0.00 0.00 0.00 87 1019.7
20260501204304 57 199 2.0 3.0 0.00 0.00 0.00 87 1019.8
20260501203305 58 207 2.0 5.0 0.00 0.00 0.00 86 1019.9
20260501202805 58 216 1.0 3.0 0.00 0.00 0.00 86 1019.9
20260501202306 58 210 2.0 5.0 0.00 0.00 0.00 86 1020.0
20260501201805 58 187 2.0 3.0 0.00 0.00 0.00 86 1020.0
20260501200304 59 252 3.0 7.0 0.00 0.00 0.00 85 1019.5
20260501195805 59 203 2.0 3.0 0.00 0.00 0.00 85 1019.5
20260501194804 59 230 3.0 7.0 0.00 0.00 0.00 84 1019.5
20260501193804 60 229 4.0 7.0 0.00 0.00 0.00 83 1019.5
20260501193305 60 201 2.0 5.0 0.00 0.00 0.00 83 1019.5
20260501192805 60 196 3.0 7.0 0.00 0.00 0.00 83 1019.5
20260501184805 62 198 3.0 6.0 0.00 0.00 0.00 80 1019.2
20260501183805 62 219 2.0 6.0 0.00 0.00 0.00 78 1019.3
20260501183304 62 214 3.0 6.0 0.00 0.00 0.00 78 1019.3
20260501182805 63 167 2.0 7.0 0.00 0.00 0.00 77 1019.3
20260501181304 63 191 3.0 7.0 0.00 0.00 0.00 76 1019.3
20260501180305 64 205 2.0 7.0 0.00 0.00 0.00 75 1019.4
20260501175805 64 206 3.0 9.0 0.00 0.00 0.00 75 1019.4